Clarksburg, WV

8:15 PM EDT on October 14, 2019 (GMT -0400)
Benedum

Weather History for KCKB - August, 2019

Change the Weather History Date:

Wednesday, August 14, 2019

  Actual Average Record
Temperature  
Mean Temperature 78 °F -  
Max Temperature 87 °F 82 °F 98 °F (1959)
Min Temperature 69 °F 59 °F 44 °F (1941)
Cooling Degree Days 14    
Growing Degree Days 28 (Base 50)    
Moisture  
Dew Point 68 °F    
Average Humidity 78    
Maximum Humidity 90    
Minimum Humidity 48    
Precipitation  
Precipitation 0.01 in - - ()
Sea Level Pressure  
Sea Level Pressure 29.87 in    
Wind  
Wind Speed 2 mph ()    
Max Wind Speed 8 mph    
Max Gust Speed -    
Visibility 8.9 miles    
Events Thunderstorm    
Averages and records for this station are not official NWS values.
T = Trace of Precipitation, MM = Missing Value Source: Averaged Metar Reports

Daily Weather History Graph

Daily Weather History Graph

Search for Another Location

Airport or City:

Astronomy

Aug. 14, 2019 Rise Set
Actual Time 6:32 AM EDT 8:17 PM EDT
Civil Twilight 6:03 AM EDT 8:46 PM EDT
Nautical Twilight 5:28 AM EDT 9:21 PM EDT
Astronomical Twilight 4:51 AM EDT 9:58 PM EDT
Moon 8:10 PM EDT (8/14) 5:29 AM EDT (8/14)
Length of Visible Light 14h 42m
Length of Day
13h 45m
Waxing Gibbous, 99% of the Moon is Illuminated
Aug 14
Waxing Gibbous
Aug 15
Full
Aug 23
Last Quarter
Aug 30
New
Sep 5
First Quarter

Hourly Weather History & Observations

Time (EDT) Temp. Heat Index Dew Point Humidity Pressure Visibility Wind Dir Wind Speed Gust Speed Precip Events Conditions
12:22 AM 73.0 °F - 69.1 °F 87% 29.84 in 10.0 mi WSW 4.6 mph - 0.01 in Thunderstorm Overcast
12:37 AM 73.0 °F - 68.0 °F 84% 29.84 in 10.0 mi WSW 3.5 mph - 0.01 in   Overcast
12:53 AM 73.0 °F - 69.1 °F 87% 29.80 in 10.0 mi SSW 4.6 mph - 0.01 in   Overcast
1:09 AM 73.0 °F - 69.1 °F 87% 29.85 in 10.0 mi Calm Calm - N/A   Overcast
1:18 AM 73.0 °F - 69.1 °F 87% 29.85 in 10.0 mi West 3.5 mph - N/A   Overcast
1:37 AM 73.0 °F - 69.1 °F 87% 29.85 in 10.0 mi Calm Calm - N/A   Overcast
1:50 AM 73.4 °F - 69.8 °F 88% 29.85 in 10.0 mi Calm Calm - N/A   Overcast
1:51 AM 73.0 °F - 69.1 °F 87% 29.80 in 10.0 mi Calm Calm - N/A   Overcast
2:09 AM 73.0 °F - 69.1 °F 87% 29.85 in 10.0 mi Calm Calm - N/A   Overcast
2:18 AM 73.0 °F - 69.1 °F 87% 29.85 in 10.0 mi Calm Calm - N/A   Overcast
2:53 AM 73.0 °F - 69.1 °F 87% 29.80 in 10.0 mi Calm Calm - N/A   Overcast
3:53 AM 73.0 °F - 70.0 °F 90% 29.79 in 9.0 mi Calm Calm - N/A   Overcast
4:35 AM 73.0 °F - 70.0 °F 90% 29.85 in 8.0 mi Calm Calm - N/A   Overcast
4:49 AM 73.4 °F - 69.8 °F 88% 29.86 in 1.2 mi Calm Calm - N/A   Overcast
4:53 AM 73.0 °F - 70.0 °F 90% 29.81 in 0.8 mi Calm Calm - N/A   Overcast
5:01 AM 73.9 °F - 70.0 °F 87% 29.86 in 2.5 mi WNW 3.5 mph - N/A   Overcast
5:08 AM 73.9 °F - 70.0 °F 87% 29.86 in 7.0 mi Calm Calm - N/A   Overcast
5:53 AM 73.0 °F - 70.0 °F 90% 29.82 in 7.0 mi Calm Calm - N/A   Overcast
6:21 AM 73.9 °F - 70.0 °F 87% 29.88 in 9.0 mi Calm Calm - N/A   Overcast
6:53 AM 73.9 °F - 70.0 °F 87% 29.85 in 7.0 mi NW 4.6 mph - N/A   Overcast
7:04 AM 73.0 °F - 69.1 °F 87% 29.90 in 7.0 mi North 3.5 mph - N/A   Overcast
7:53 AM 73.9 °F - 69.1 °F 85% 29.87 in 6.0 mi NNW 5.8 mph - N/A   Haze
8:53 AM 73.9 °F - 68.0 °F 82% 29.88 in 9.0 mi North 4.6 mph - N/A   Overcast
9:00 AM 73.9 °F - 68.0 °F 82% 29.93 in 9.0 mi Calm Calm - N/A   Overcast
9:09 AM 73.9 °F - 68.0 °F 82% 29.92 in 9.0 mi Calm Calm - N/A   Mostly Cloudy
9:18 AM 75.0 °F - 68.0 °F 79% 29.93 in 9.0 mi North 3.5 mph - N/A   Overcast
9:53 AM 75.0 °F - 68.0 °F 79% 29.88 in 10.0 mi North 4.6 mph - N/A   Mostly Cloudy
10:49 AM 77.0 °F - 68.0 °F 74% 29.94 in 10.0 mi Calm Calm - N/A   Overcast
10:53 AM 75.9 °F - 68.0 °F 76% 29.89 in 10.0 mi NNE 3.5 mph - N/A   Overcast
11:53 AM 78.1 °F - 66.9 °F 68% 29.90 in 10.0 mi North 4.6 mph - N/A   Mostly Cloudy
12:22 PM 79.0 °F - 66.9 °F 66% 29.94 in 10.0 mi Calm Calm - N/A   Mostly Cloudy
12:53 PM 82.0 °F 84.9 °F 68.0 °F 62% 29.89 in 10.0 mi NNW 8.1 mph - N/A   Mostly Cloudy
1:53 PM 82.0 °F 84.5 °F 66.9 °F 60% 29.88 in 10.0 mi WNW 6.9 mph - N/A   Mostly Cloudy
2:00 PM 82.9 °F 85.4 °F 66.9 °F 58% 29.93 in 10.0 mi Calm Calm - N/A   Partly Cloudy
2:53 PM 84.0 °F 86.5 °F 66.9 °F 56% 29.87 in 10.0 mi NNE 6.9 mph - N/A   Mostly Cloudy
3:53 PM 86.0 °F 87.6 °F 64.9 °F 49% 29.87 in 10.0 mi Variable 4.6 mph - N/A   Partly Cloudy
4:53 PM 87.1 °F 88.9 °F 64.9 °F 48% 29.87 in 10.0 mi North 3.5 mph - N/A   Partly Cloudy
5:53 PM 84.0 °F 86.5 °F 66.9 °F 56% 29.86 in 10.0 mi North 6.9 mph - N/A   Scattered Clouds
6:53 PM 82.0 °F 84.1 °F 66.0 °F 58% 29.86 in 10.0 mi NNW 5.8 mph - N/A   Scattered Clouds
7:53 PM 79.0 °F - 66.0 °F 64% 29.87 in 10.0 mi NNE 3.5 mph - N/A   Clear
8:53 PM 73.9 °F - 66.0 °F 76% 29.89 in 10.0 mi Calm Calm - 0.00 in   Clear
9:53 PM 73.0 °F - 66.9 °F 81% 29.91 in 10.0 mi Calm Calm - N/A   Clear
10:53 PM 70.0 °F - 64.9 °F 84% 29.92 in 10.0 mi Calm Calm - N/A   Clear
11:53 PM 69.1 °F - 64.9 °F 87% 29.93 in 9.0 mi Calm Calm - N/A   Clear